Flag for Mayotte Weather past 2 weeks in Mamoutzou, Mayotte

Now
77 °F

Warm.


Feels Like: 79 °F
Forecast: 74 / 80 °F
Wind: 7 mph from West

Location: Dzaoudzi / Pamanzi Mayotte

Current Time: Sep 3, 2015 at 9:02:30 PM

Latest Report: Sep 3, 2015 at 8:30 PM


Visibility: N/A

Pressure: 30.04 "Hg

Humidity: 79%

Dew point: 70 °F

Location of MamoutzouLocation

Historic Weather in Mamoutzou — Graph

°F

Mamoutzou temperature yesterday

Maximum temperature yesterday: 82 °F (at 11:00 AM)
Minimum temperature yesterday: 70 °F (at 5:30 AM)
Average temperature yesterday: 77 °F

Past Weeks' High & Low Weather Summary

 TemperatureHumidityPressure
High86 °F (Aug 28, 10:00 AM)94% (Aug 20, 3:00 AM)30.12 "Hg (Aug 20, 3:00 AM)
Low68 °F (Aug 20, 3:00 AM)55% (Aug 21, 2:00 PM)29.98 "Hg (Aug 20, 12:30 AM)
Average77 °F74%30.04 "Hg
* Reported Aug 19 8:00 PM — Sep 3 8:00 PM, Mamoutzou, Weather by CustomWeather, © 2015

Note: Actual official high and low records may vary slightly from our data, if they occured in-between our weather recording intervals... More about our weather records

Advertising

Mamoutzou weather history for previous 24 hours

 ConditionsComfort  
Time TempWeatherWind HumidityBarometerVisibility
8:00 PM
Thu, Sep 3
77 °FWarm.6 mph79%30.04 "HgN/A
7:30 PM77 °FPassing clouds.6 mph74%30.01 "HgN/A
7:00 PM79 °FPassing clouds.9 mph74%30.01 "HgN/A
6:30 PM79 °FPassing clouds.7 mph70%30.01 "HgN/A
6:00 PM79 °FPassing clouds.7 mph70%30.01 "HgN/A
5:30 PM79 °FPassing clouds.7 mph70%30.01 "HgN/A
5:00 PM79 °FPassing clouds.7 mph70%30.01 "HgN/A
4:30 PM82 °FScattered clouds.7 mph62%29.98 "HgN/A
4:00 PM82 °FScattered clouds.8 mph62%29.98 "HgN/A
3:35 PM81 °FScattered clouds.8 mph66%29.98 "HgN/A
3:00 PM82 °FScattered clouds.9 mph62%29.98 "HgN/A
2:30 PM84 °FScattered clouds.8 mph58%29.98 "HgN/A
2:00 PM82 °FScattered clouds.9 mph66%29.98 "HgN/A
1:37 PM82 °FPartly sunny.7 mph66%30.01 "HgN/A
1:00 PM81 °FPartly sunny.5 mph70%30.01 "HgN/A
12:38 PM81 °FScattered clouds.3 mph66%30.01 "HgN/A
12:00 PM81 °FPartly sunny.6 mph66%30.04 "HgN/A
11:30 AM82 °FScattered clouds.3 mph62%30.04 "HgN/A
11:00 AM81 °FScattered clouds.2 mph70%30.04 "HgN/A
10:30 AM81 °FPartly sunny.3 mph70%30.07 "HgN/A
10:00 AM81 °FScattered clouds.2 mph70%30.07 "HgN/A
9:30 AM79 °FPartly sunny.3 mph74%30.07 "HgN/A
9:00 AM79 °FPartly sunny.3 mph74%30.07 "HgN/A
8:30 AM77 °FPartly sunny.3 mph79%30.04 "HgN/A
8:00 AM79 °FPartly sunny.5 mph74%30.04 "HgN/A
7:30 AM79 °FScattered clouds.5 mph74%30.04 "HgN/A
7:00 AM77 °FScattered clouds.3 mph79%30.01 "HgN/A
6:30 AM73 °FScattered clouds.3 mph89%30.01 "HgN/A
6:00 AM72 °FPassing clouds.2 mph88%30.01 "HgN/A
5:30 AM73 °FClear.5 mph83%30.01 "Hg10 mi
5:00 AM72 °FMild.2 mph88%29.98 "Hg4 mi
4:30 AM73 °FMild.No wind83%29.98 "HgN/A
4:00 AM75 °FPassing clouds.5 mph83%29.98 "HgN/A
3:30 AM75 °FPassing clouds.7 mph83%29.98 "HgN/A
3:00 AM73 °FMild.7 mph83%29.98 "HgN/A
2:30 AM73 °FMild.3 mph83%29.98 "HgN/A
2:00 AM72 °FMild.3 mph88%29.98 "HgN/A
1:30 AM73 °FMild.5 mph83%30.01 "HgN/A
12:30 AM73 °FMild.5 mph89%30.04 "HgN/A
12:00 AM72 °FMild.2 mph88%30.04 "HgN/A
11:30 PM
Wed, Sep 2
73 °FMild.2 mph83%30.04 "HgN/A
11:00 PM75 °FMild.3 mph78%30.04 "HgN/A
10:30 PM75 °FMild.3 mph78%30.04 "HgN/A
10:00 PM75 °FMild.3 mph83%30.04 "HgN/A
9:30 PM75 °FMild.5 mph83%30.04 "HgN/A
9:00 PM77 °FWarm.3 mph79%30.04 "HgN/A
Weather by CustomWeather, © 2015

See weather overviewHow to use our weather pages